Regional Weather Roundup
Issued by NWS

Home | Current Version | Previous Version | Graphics & Text | Print | Product List | Glossary On
Versions: 1 2 3 4 5 6 7 8 9 10 11 12 13 14 15 16 17 18 19 20 21 22 23 24 25 26 27 28 29 30 31 32 33 34 35 36 37 38 39 40 41 42 43 44 45 46 47 48 49 50
812
ASUS45 KBOU 292107
RWRCO

WEATHER ROUNDUP FOR COLORADO
NATIONAL WEATHER SERVICE DENVER/BOULDER CO
300 PM MDT MON MAY 29 2017

NOTE: "FAIR" INDICATES FEW OR NO CLOUDS BELOW 12000 FEET WITH NO
SIGNIFICANT WEATHER AND/OR OBSTRUCTIONS TO VISIBILITY.

COZ001>005-013-030-031-292200-
...NORTHWEST COLORADO...

CITY           SKY/WX    TMP DP  RH WIND       PRES   REMARKS
CRAIG          PTSUNNY   66  30  26 VRB3      30.22F
HAYDEN         FAIR      66  32  28 W10       30.24S
MEEKER         FAIR      70  29  21 E7        30.21F
RABBIT EARS PA FAIR      46  28  49 NW9       30.43F
STEAMBOAT SPGS PTSUNNY   57  39  49 N12       30.28R
WALDEN           N/A     54  32  43 NE10      30.34F
$$

COZ006>008-011-292200-
...WEST CENTRAL VALLEYS...

CITY           SKY/WX    TMP DP  RH WIND       PRES   REMARKS
GRAND JUNCTION FAIR      81  24  12 VRB7      30.09F
MONTROSE       FAIR      75  15  10 VRB6      30.15F
EAGLE          MOSUNNY   70  27  19 VRB6G16   30.21F
RIFLE          FAIR      79  21  11 W8        30.13F
DELTA          FAIR      84  13   7 SW8G23    30.10F
NUCLA          FAIR      79  19  11 NW9       30.18F
$$

COZ017>023-064>068-292200-
...SOUTHWEST COLORADO...

CITY           SKY/WX    TMP DP  RH WIND       PRES   REMARKS
DURANGO        FAIR      74  16  11 W8        30.17F
CORTEZ         FAIR      77  11   8 CALM      30.14F
PAGOSA SPRINGS FAIR      70   5   7 W8        30.24F
TELLURIDE      CLOUDY    65  24  21 CALM      30.34S
WOLF CREEK PAS FAIR      46  18  31 S9G18     30.52F
$$

COZ009-010-012-014-032>034-037-058>063-292200-
...CENTRAL COLORADO...

CITY           SKY/WX    TMP DP  RH WIND       PRES   REMARKS
ASPEN          FAIR      65  21  18 NE7       30.24F
BUENA VISTA    FAIR      67  19  15 S14G21    30.24F
COPPER MTN     PTSUNNY   46  18  31 NW8       30.48F
BERTHOUD PASS  PTSUNNY   37  28  70 NW12G28   30.49F
COTTONWOOD PAS FAIR      61  14  16 S7        30.35F
GUNNISON       FAIR      63  22  20 NW6       30.24F
KREMMLING      CLOUDY    66  36  32 NE16G23   30.28S
LEADVILLE      FAIR      53  16  23 NW12G20   30.34F
MONARCH PASS   FAIR      50  14  23 W16G26    30.57F
SALIDA         FAIR      72  18  13 NE6       30.27F
SUNLIGHT       FAIR      50  19  29 SW6       30.46F
WILKERSON PASS CLOUDY    41  30  65 CALM      30.48S
$$

COZ069>075-292200-
...SAN LUIS VALLEY/SANGRE DE CRISTO MOUNTAINS...

CITY           SKY/WX    TMP DP  RH WIND       PRES   REMARKS
ALAMOSA        FAIR      71  20  14 S9G20     30.20F
DEL NORTE      PTSUNNY   68  26  21 N9G18     30.24F
LA VETA PASS   PTSUNNY   54  36  50 MISG      30.49F
SAGUACHE       PTSUNNY   68  23  18 NE15G24   30.25S
$$

COZ035-036-038>040-292200-
...NORTHERN COLORADO FRONT RANGE...

CITY           SKY/WX    TMP DP  RH WIND       PRES   REMARKS
DENVER INTL AP PTSUNNY   66  42  41 N9        30.21S
DMNS CITY PARK   N/A     62  44  51 E8G20     30.20F
AURORA         TSTM      61  44  54 N14       30.21F
FRONT RANGE AP PTSUNNY   68  45  42 N13G18    30.22F
ERIE MUNI ARPT FAIR      66  43  42 CALM      30.21F
BOULDER MUN AP FAIR      63  41  45 CALM      30.22F
CENTENNIAL     HAIL      56  43  61 SE13      30.24R
BROOMFIELD     PTSUNNY   63  43  48 MISG      30.23F
FORT COLLINS   FAIR      71  40  32 E3        30.21F
LONGMONT       PTSUNNY   67  44  42 W5        30.23F
$$

COZ041-046-047-076>085-087-088-292200-
...PIKES PEAK/PALMER DIVIDE AND SOUTHERN FOOTHILLS...

CITY           SKY/WX    TMP DP  RH WIND       PRES   REMARKS
COLO. SPRINGS  LGT RAIN  66  41  40 N8        30.26F
A. F. ACADEMY  FAIR      60  39  45 SE9       30.25F
SCHRIEVER AFB  LGT RAIN  59  36  42 N14G28    30.26
CHEYENNE MTN   CLOUDY    55  43  64 NW7       30.23F
ELLICOTT       FAIR     N/A N/A N/A VRB5      30.24R
FALCON         NOT AVBL
FORT CARSON    MOSUNNY   62  41  45 N6        30.23F
LIMON          CLOUDY    65  43  44 NE8       30.20F
MONUMENT HILL  PTSUNNY   52  43  71 S7        30.29F
CANON CITY     NOT AVBL
WALSENBURG     FAIR      72  43  35 E12       30.19F
TRINIDAD       PTSUNNY   69  33  26 CALM      30.17F
$$

COZ042>045-048>051-090-091-292200-
...NORTHEAST COLORADO...

CITY           SKY/WX    TMP DP  RH WIND       PRES   REMARKS
GREELEY ARPT   FAIR      65  45  48 NE15      30.21S
AKRON          FAIR      71  42  35 MISG      30.19F
BURLINGTON     FAIR      72  44  36 VRB7      30.18F
WRAY           PTSUNNY   73  36  25 N10       30.15S
YUMA           MOCLDY    68  28  22 NW6       30.16F
STERLING       NOT AVBL
HOLYOKE        NOT AVBL
FORT MORGAN    PTSUNNY   69  37  30 N9        30.19S
$$

COZ086-089-092>099-292200-
...SOUTHEAST COLORADO...

CITY           SKY/WX    TMP DP  RH WIND       PRES   REMARKS
PUEBLO         FAIR      73  42  32 E9        30.15F
LA JUNTA       FAIR      75  44  33 E5        30.13F
LAMAR          FAIR      77  42  28 VRB3      30.11F
SPRINGFIELD      N/A     74  42  31 S9        30.13F
$$




USA.gov is the U.S. government's official web portal to all federal, state and local government web resources and services.